LA1ZDA-2 Weather Reports


Display with metric or nautical units.
time (UTC)temp
F
wind
direction
speed
MPH
gust
MPH
rain 1hr
in
rain 24hr
in
rain mn
in
humidity
%
barometer
mb
20260504081918 39 142 0.0 0.0 0.00 0.00 0.00
20260504081401 37 150 0.0 0.0 0.00 0.00 0.00
20260504080844 36 139 0.0 0.0 0.00 0.00 0.00
20260504080327 36 153 0.0 0.0 0.00 0.00 0.00
20260504060157 32 144 0.0 0.0 0.00 0.00 0.00
20260504050350 26 142 0.0 0.0 0.00 0.00 0.00
20260504045833 26 137 0.0 0.0 0.00 0.00 0.00
20260504045316 27 147 0.0 0.0 0.00 0.00 0.00
20260504044759 27 148 0.0 0.0 0.00 0.00 0.00
20260504044242 27 145 0.0 0.0 0.00 0.00 0.00
20260504043725 27 149 0.0 0.0 0.00 0.00 0.00
20260504043208 27 143 0.0 0.0 0.00 0.00 0.00
20260504042651 27 148 0.0 0.0 0.00 0.00 0.00
20260504042134 27 152 0.0 0.0 0.00 0.00 0.00
20260504041617 27 147 0.0 0.0 0.00 0.00 0.00
20260504041101 27 171 0.0 0.0 0.00 0.00 0.00
20260504040543 27 147 0.0 0.0 0.00 0.00 0.00
20260504040027 27 157 0.0 1.0 0.00 0.00 0.00
20260504035509 27 154 0.0 1.0 0.00 0.00 0.00
20260504034953 27 166 0.0 0.0 0.00 0.00 0.00
20260504034435 27 157 0.0 0.0 0.00 0.00 0.00
20260504033919 27 160 0.0 0.0 0.00 0.00 0.00
20260504033401 27 156 0.0 1.0 0.00 0.00 0.00
20260504032845 27 160 0.0 1.0 0.00 0.00 0.00
20260504032328 28 161 0.0 1.0 0.00 0.00 0.00
20260504031811 28 146 0.0 1.0 0.00 0.00 0.00
20260504031254 28 150 0.0 0.0 0.00 0.00 0.00
20260504030737 28 164 0.0 0.0 0.00 0.00 0.00
20260504030220 28 155 0.0 0.0 0.00 0.00 0.00
20260504025703 28 150 0.0 0.0 0.00 0.00 0.00
20260504025146 28 154 0.0 2.0 0.00 0.00 0.00
20260504024629 28 161 0.0 0.0 0.00 0.00 0.00
20260504024112 28 145 0.0 1.0 0.00 0.00 0.00
20260504023555 28 147 0.0 0.0 0.00 0.00 0.00
20260504023038 28 141 0.0 0.0 0.00 0.00 0.00
20260504022521 28 139 0.0 0.0 0.00 0.00 0.00
20260504022004 28 135 0.0 0.0 0.00 0.00 0.00
20260504021447 28 142 0.0 0.0 0.00 0.00 0.00
20260504020930 28 135 0.0 0.0 0.00 0.00 0.00
20260504020413 28 136 0.0 0.0 0.00 0.00 0.00
20260504015856 28 135 0.0 0.0 0.00 0.00 0.00
20260504015339 28 121 0.0 0.0 0.00 0.00 0.00
20260504014822 28 138 0.0 0.0 0.00 0.00 0.00
20260504014305 28 133 0.0 0.0 0.00 0.00 0.00
20260504013748 28 136 0.0 0.0 0.00 0.00 0.00
20260504013231 28 135 0.0 0.0 0.00 0.00 0.00
20260504012714 28 141 0.0 0.0 0.00 0.00 0.00
20260504012157 28 142 0.0 0.0 0.00 0.00 0.00
20260504011640 28 138 0.0 0.0 0.00 0.00 0.00
20260504011123 28 337 0.0 0.0 0.00 0.00 0.00
20260504010606 28 135 0.0 0.0 0.00 0.00 0.00
20260504010049 28 142 0.0 0.0 0.00 0.00 0.00
20260504005532 28 135 0.0 0.0 0.00 0.00 0.00
20260504005015 28 137 0.0 0.0 0.00 0.00 0.00
20260504004458 28 139 0.0 0.0 0.00 0.00 0.00
20260504003942 28 139 0.0 0.0 0.00 0.00 0.00
20260504003424 27 143 0.0 0.0 0.00 0.00 0.00
20260504002908 27 147 0.0 0.0 0.00 0.00 0.00
20260504002350 27 133 0.0 0.0 0.00 0.00 0.00
20260504001834 27 135 0.0 0.0 0.00 0.00 0.00
20260504001316 27 135 0.0 0.0 0.00 0.00 0.00
20260504000800 27 136 0.0 0.0 0.00 0.00 0.00
20260504000243 26 139 0.0 0.0 0.00 0.00 0.00
20260503235726 26 142 0.0 0.0 0.00 0.00 0.00
20260503235208 25 150 0.0 0.0 0.00 0.00 0.00
20260503234652 25 163 0.0 0.0 0.00 0.00 0.00
20260503234135 24 183 0.0 0.0 0.00 0.00 0.00
20260503233618 24 332 0.0 0.0 0.00 0.00 0.00
20260503233101 24 318 0.0 0.0 0.00 0.00 0.00
20260503232544 24 320 0.0 0.0 0.00 0.00 0.00
20260503232027 24 304 0.0 0.0 0.00 0.00 0.00
20260503231510 25 276 0.0 0.0 0.00 0.00 0.00
20260503230953 25 267 0.0 0.0 0.00 0.00 0.00
20260503230436 25 270 0.0 0.0 0.00 0.00 0.00
20260503225919 24 276 0.0 0.0 0.00 0.00 0.00
20260503225402 24 319 0.0 0.0 0.00 0.00 0.00
20260503224845 24 307 0.0 0.0 0.00 0.00 0.00
20260503224328 24 315 0.0 0.0 0.00 0.00 0.00
20260503223811 24 301 0.0 0.0 0.00 0.00 0.00
20260503223254 24 297 0.0 0.0 0.00 0.00 0.00
20260503222737 24 315 0.0 0.0 0.00 0.00 0.00
20260503222220 24 333 0.0 0.0 0.00 0.00 0.00
20260503221703 24 315 0.0 0.0 0.00 0.00 0.00
20260503221146 23 315 0.0 0.0 0.00 0.00 0.00
20260503220629 24 315 0.0 0.0 0.00 0.00 0.00
20260503220112 24 358 0.0 0.0 0.00 0.00 0.00
20260503215555 23 331 0.0 0.0 0.00 0.00 0.00
20260503215038 23 316 0.0 0.0 0.00 0.00 0.00
20260503214521 23 320 0.0 0.0 0.00 0.00 0.00
20260503214004 23 315 0.0 0.0 0.00 0.00 0.00
20260503213447 24 313 0.0 0.0 0.00 0.00 0.00
20260503212930 25 19 0.0 0.0 0.00 0.00 0.00
20260503212413 25 137 0.0 0.0 0.00 0.00 0.00
20260503211857 25 304 0.0 0.0 0.00 0.00 0.00
20260503211339 26 22 0.0 0.0 0.00 0.00 0.00
20260503210823 26 337 0.0 0.0 0.00 0.00 0.00
20260503210306 25 337 0.0 0.0 0.00 0.00 0.00
20260503205749 25 115 0.0 0.0 0.00 0.00 0.00
20260503205231 25 337 0.0 0.0 0.00 0.00 0.00
20260503204715 24 112 0.0 0.0 0.00 0.00 0.00
20260503204157 24 297 0.0 0.0 0.00 0.00 0.00
20260503203641 25 339 0.0 0.0 0.00 0.00 0.00
20260503203123 25 172 0.0 0.0 0.00 0.00 0.00
20260503202607 24 337 0.0 0.0 0.00 0.00 0.00
20260503202050 24 276 0.0 0.0 0.00 0.00 0.00
20260503201533 25 318 0.0 0.0 0.00 0.00 0.00
20260503201016 26 326 0.0 0.0 0.00 0.00 0.00
20260503200459 27 337 0.0 0.0 0.00 0.00 0.00
20260503195942 27 337 0.0 0.0 0.00 0.00 0.00
20260503195425 27 156 0.0 0.0 0.00 0.00 0.00
20260503194908 28 169 0.0 0.0 0.00 0.00 0.00
20260503194351 28 162 0.0 0.0 0.00 0.00 0.00
20260503193834 29 149 0.0 0.0 0.00 0.00 0.00
20260503193317 30 158 0.0 0.0 0.00 0.00 0.00
20260503192800 31 160 0.0 0.0 0.00 0.00 0.00
20260503192243 31 136 0.0 0.0 0.00 0.00 0.00
20260503191726 32 135 0.0 0.0 0.00 0.00 0.00
20260503191209 32 139 0.0 0.0 0.00 0.00 0.00
20260503190652 32 141 0.0 0.0 0.00 0.00 0.00
20260503190135 32 158 0.0 0.0 0.00 0.00 0.00
20260503185618 33 137 0.0 0.0 0.00 0.00 0.00
20260503185101 34 135 0.0 0.0 0.00 0.00 0.00
20260503184544 35 142 0.0 0.0 0.00 0.00 0.00
20260503184027 36 148 0.0 0.0 0.00 0.00 0.00
20260503183510 37 143 0.0 0.0 0.00 0.00 0.00
20260503182953 37 141 0.0 0.0 0.00 0.00 0.00
20260503182436 38 145 0.0 0.0 0.00 0.00 0.00
20260503181919 38 143 0.0 0.0 0.00 0.00 0.00
20260503181402 39 142 0.0 0.0 0.00 0.00 0.00
20260503180846 39 151 0.0 0.0 0.00 0.00 0.00
20260503180328 39 149 0.0 0.0 0.00 0.00 0.00
20260503175812 39 171 0.0 0.0 0.00 0.00 0.00
20260503175254 40 163 0.0 0.0 0.00 0.00 0.00
20260503174738 40 141 0.0 0.0 0.00 0.00 0.00
20260503174220 40 147 0.0 0.0 0.00 0.00 0.00
20260503173704 40 144 0.0 0.0 0.00 0.00 0.00
20260503173145 41 146 0.0 0.0 0.00 0.00 0.00
20260503172629 41 150 0.0 0.0 0.00 0.00 0.00
20260503172111 40 144 0.0 0.0 0.00 0.00 0.00
20260503171555 41 148 0.0 0.0 0.00 0.00 0.00
20260503171038 41 142 0.0 0.0 0.00 0.00 0.00
20260503170521 41 151 0.0 0.0 0.00 0.00 0.00
20260503160157 44 147 0.0 0.0 0.00 0.00 0.00
20260503150907 44 155 0.0 0.0 0.00 0.00 0.00
20260503150350 44 142 0.0 0.0 0.00 0.00 0.00
20260503131254 44 145 0.0 0.0 0.00 0.00 0.00
20260503130737 44 140 0.0 0.0 0.00 0.00 0.00
20260503130220 44 143 0.0 0.0 0.00 0.00 0.00
20260503110607 44 145 0.0 0.0 0.00 0.00 0.00
20260503100243 44 150 0.0 0.0 0.00 0.00 0.00
20260503090436 42 153 0.0 0.0 0.00 0.00 0.00